Regional Weather Roundup
Issued by NWS

Home | Current Version | Previous Version | Text Only | Print | Product List | Glossary On
Versions: 1 2 3 4 5 6 7 8 9 10 11 12 13 14 15 16 17 18 19 20 21 22 23 24 25 26 27 28 29 30 31 32 33 34 35 36 37 38 39 40 41 42 43 44 45 46 47 48 49 50
000
ASUS43 KLMK 260910
RWRKY
KENTUCKY REGIONAL WEATHER ROUNDUP
NATIONAL WEATHER SERVICE LOUISVILLE KY
500 AM EDT WED APR 26 2017

NOTE "FAIR" INDICATES FEW OR NO CLOUDS BELOW 12,000 FEET
WITH NO SIGNIFICANT WEATHER AND/OR OBSTRUCTIONS TO VISIBILITY.

KYZ001>023-026-027-061>063-070>075-261000-
WESTERN AND SOUTH CENTRAL KENTUCKY

CITY           SKY/WX    TMP DP  RH WIND       PRES   REMARKS
PADUCAH        MOCLDY    67  53  61 S7        29.59R
HENDERSON      CLOUDY    61  57  87 SE8       29.63R
OWENSBORO      CLEAR     62  57  83 SE12      29.64S
HOPKINSVILLE   CLEAR     60  57  88 SE5       29.66R
BOWLING GREEN  CLEAR     56  56 100 CALM      29.70R
GLASGOW        CLEAR     58  55  89 CALM      29.71R
$$

KYZ024-025-028>034-038-045-046-053-261000-
NORTH CENTRAL KENTUCKY

CITY           SKY/WX    TMP DP  RH WIND       PRES   REMARKS
LOUISVILLE/SDF PTCLDY    61  56  83 SE8       29.68S
LOUISVILLE/LOU CLEAR     59  56  89 CALM      29.69S
FORT KNOX      CLOUDY    57  54  89 S6        29.68R
$$

KYZ035>037-039>044-047>052-055>060-089>105-261000-
NORTHEAST KENTUCKY

CITY           SKY/WX    TMP DP  RH WIND       PRES   REMARKS
LEXINGTON      CLEAR     57  53  86 S6        29.72R
COVINGTON      PTCLDY    56  54  93 S6        29.70S
FRANKFORT      CLEAR     56  52  86 CALM      29.70R
$$

KYZ054-064>069-076>088-106>120-261000-
SOUTHEAST KENTUCKY

CITY           SKY/WX    TMP DP  RH WIND       PRES   REMARKS
JACKSON        CLEAR     57  54  89 CALM      29.74R
LONDON         CLEAR     53  50  89 CALM      29.73S
SOMERSET         N/A     52  52 100 CALM      29.74S FOG
MIDDLESBORO    FOG       50  50 100 CALM      29.77R VSB 1/2
MONTICELLO     SUNNY     52  51  97 W12       29.74S
$$




USA.gov is the U.S. government's official web portal to all federal, state and local government web resources and services.